Regional Weather Roundup
Issued by NWS Cleveland, OH

Home | Current Version | Previous Version | Graphics & Text | Print | Product List | Glossary On
Versions: 1 2 3 4 5 6 7 8 9 10 11 12 13 14 15 16 17 18 19 20 21 22 23 24 25 26 27 28 29 30 31 32 33 34 35 36 37 38 39 40 41 42 43 44 45 46 47 48 49 50
000
ASUS41 KCLE 190110
RWRCLE
OHIO REGIONAL WEATHER ROUNDUP
NATIONAL WEATHER SERVICE CLEVELAND, OH
800 PM EST WED JAN 18 2017

NOTE: "FAIR" INDICATES FEW OR NO CLOUDS BELOW 12,000 FEET WITH NO
SIGNIFICANT WEATHER AND/OR OBSTRUCTIONS TO VISIBILITY.

OHZ001>008-015>018-024>027-034-035-043-044-190200-
   NORTHWEST OHIO

CITY           SKY/WX    TMP DP  RH WIND       PRES   REMARKS
DEFIANCE       CLOUDY    34  33  96 SW8       30.11F WCI  27
FINDLAY        CLOUDY    37  33  85 W10       30.11R
TOLEDO EXPRESS CLOUDY    35  35 100 SW12      30.08F WCI  27
TOLEDO EXEC    CLOUDY    37  36  96 SW17      30.09F
LIMA           CLOUDY    36  36 100 W12       30.11F
$$

OHZ009>014-019>023-028>033-038-089-190200-
   NORTHEAST OHIO

CITY           SKY/WX    TMP DP  RH WIND       PRES   REMARKS
CLE-HOPKINS    CLOUDY    40  35  83 SW9       30.10F
CLE-LAKEFRONT  CLOUDY    39  36  89 SW10      30.07F
CUY CO. ARPT   CLOUDY    39  37  93 W12       30.07F FOG
LORAIN-ELYRIA  CLOUDY    37  34  89 SW13      30.09S
ASHTABULA      CLOUDY    37  36  96 SW6       30.07S
AKRON-CANTON   CLOUDY    38  34  85 SW8       30.08F
WOOSTER        CLOUDY    37  34  89 SW9       30.09S
MANSFIELD      CLOUDY    36  35  96 SW12      30.09S
YOUNGSTOWN     DRIZZLE   37  36  96 SW7       30.07F FOG
$$

OHZ042-051>053-060>062-070>072-077>081-190200-
  SOUTHWEST OHIO

CITY           SKY/WX    TMP DP  RH WIND       PRES   REMARKS
CINC-COVINGTON CLOUDY    40  36  86 SW6       30.15R
CINC-LUNKEN    CLOUDY    42  36  79 SW5       30.17R
HAMILTON       CLOUDY    41  37  86 SW6       30.16S
DAYTON         CLOUDY    38  36  92 SW12      30.13S
WRIGHT-PAT AFB CLOUDY    39  38  94 SW8       30.12F
DAYTON GENERAL CLOUDY    39  36  89 SW8       30.12F
WILMINGTON     CLOUDY    38  36  92 SW7       30.11F
$$

OHZ036-037-039>041-045>050-054>059-063>069-073>076-082>088-190200-
  CENTRAL AND SOUTHEAST OHIO

CITY           SKY/WX    TMP DP  RH WIND       PRES   REMARKS
COLUMBUS       CLOUDY    40  35  83 SW6       30.14R
OSU AIRPORT    CLOUDY    38  36  92 SW9       30.13R
BOLTON FIELD   CLOUDY    38  35  91 W5        30.14S
RICKENBACK AFB   N/A     38  36  92 W7        30.14S
NEWARK         CLOUDY    39  35  86 SW12      30.13R
MARION         CLOUDY    36  34  92 W9        30.13R
LANCASTER      CLOUDY    40  36  86 SW8       30.14S
ZANESVILLE     CLOUDY    39  35  86 SW5       30.14R
NEW PHILLY     NOT AVBL
$$




USA.gov is the U.S. government's official web portal to all federal, state and local government web resources and services.